Satellite: FO-70
Catalog number: 37380
Epoch time:      12257.50537911
Element set:    0287
Inclination:      071.9726 deg
RA of node:       117.7321 deg
Eccentricity:    0.0017300
Arg of perigee:   158.0228 deg
Mean anomaly:     202.1680 deg
Mean motion:   14.76915712 rev/day
Decay rate:       4.70e-06 rev/day^2
Epoch rev:           04902
Checksum:              282

Satellite: ALMASAT-1
Catalog number: 38078
Epoch time:      12257.75916272
Element set:     561
Inclination:      069.4820 deg
RA of node:       116.2414 deg
Eccentricity:    0.0745153
Arg of perigee:   137.8145 deg
Mean anomaly:     228.2826 deg
Mean motion:   14.12084209 rev/day
Decay rate:     1.8436e-04 rev/day^2
Epoch rev:            3004
Checksum:              295

Satellite: XATCOBEO
Catalog number: 38082
Epoch time:      12257.77415227
Element set:     548
Inclination:      069.4830 deg
RA of node:       111.5895 deg
Eccentricity:    0.0706252
Arg of perigee:   135.2754 deg
Mean anomaly:     230.7583 deg
Mean motion:   14.23087041 rev/day
Decay rate:     4.5883e-04 rev/day^2
Epoch rev:            3016
Checksum:              302

/EX
SB KEPS @ AMSAT  $ORB12257.W
Orbital Elements  12257.WEATHER

HR AMSAT ORBITAL ELEMENTS FOR WEATHER SATELLITES
FROM WA5QGD FORT WORTH,TX September 13, 2012
Send SUBSCRIBE KEPS/UNSUBSCRIBE KEPS to majordomo at amsat.org only
BID: ORB12257.W
TO ALL RADIO AMATEURS BT

Satellite: NOAA-10
Catalog number: 16969
Epoch time:      12256.98201832
Element set:    0066
Inclination:      098.5778 deg
RA of node:       284.4516 deg
Eccentricity:    0.0012196
Arg of perigee:   342.0928 deg
Mean anomaly:     017.9823 deg
Mean motion:   14.27575729 rev/day
Decay rate:        5.8e-07 rev/day^2
Epoch rev:           35239
Checksum:              339

Satellite: NOAA-11
Catalog number: 19531
Epoch time:      12256.68650482
Element set:    0054
Inclination:      098.7292 deg
RA of node:       339.9920 deg
Eccentricity:    0.0011333
Arg of perigee:   338.9464 deg
Mean anomaly:     021.1243 deg
Mean motion:   14.14980207 rev/day
Decay rate:       -6.9e-07 rev/day^2
Epoch rev:           23688
Checksum:              308

Satellite: NOAA-12
Catalog number: 21263
Epoch time:      12256.92536179
Element set:    0551
Inclination:      098.7251 deg
RA of node:       278.1641 deg
Eccentricity:    0.0013223
Arg of perigee:   309.6194 deg
Mean anomaly:     050.3818 deg
Mean motion:   14.25516782 rev/day
Decay rate:       -3.3e-07 rev/day^2
Epoch rev:           10905
Checksum:              289

Satellite: MET-3/5
Catalog number: 21655
Epoch time:      12257.80357775
Element set:     503
Inclination:      082.5521 deg
RA of node:       089.5836 deg
Eccentricity:    0.0014508
Arg of perigee:   101.8380 deg
Mean anomaly:     258.4370 deg
Mean motion:   13.17039900 rev/day
Decay rate:        5.0e-07 rev/day^2
Epoch rev:            1355
Checksum:              287

Satellite: MET-2/21
Catalog number: 22782
Epoch time:      12257.59310560
Element set:     526
Inclination:      082.5504 deg
RA of node:       322.3734 deg
Eccentricity:    0.0020897
Arg of perigee:   264.9270 deg
Mean anomaly:     094.9516 deg
Mean motion:   13.83688299 rev/day
Decay rate:       -5.1e-07 rev/day^2
Epoch rev:           96139
Checksum:              326

Satellite: OKEAN-4
Catalog number: 23317
Epoch time:      12257.84091952
Element set:     997
Inclination:      082.5413 deg
RA of node:       308.3190 deg
Eccentricity:    0.0023110
Arg of perigee:   061.4918 deg
Mean anomaly:     298.8621 deg
Mean motion:   14.83942185 rev/day
Decay rate:       4.80e-06 rev/day^2
Epoch rev:           96795
Checksum:              322

Satellite: NOAA-14
Catalog number: 23455
Epoch time:      12256.93924007
Element set:    0034
Inclination:      098.8239 deg
RA of node:       339.3192 deg
Eccentricity:    0.0010411
Arg of perigee:   067.0738 deg
Mean anomaly:     293.1528 deg
Mean motion:   14.13869716 rev/day
Decay rate:        1.3e-07 rev/day^2
Epoch rev:           91319
Checksum:              302

Satellite: NOAA-15
Catalog number: 25338
Epoch time:      12256.74937973
Element set:    0400
Inclination:      098.6984 deg
RA of node:       242.8699 deg
Eccentricity:    0.0010084
Arg of perigee:   209.7302 deg
Mean anomaly:     150.3262 deg
Mean motion:   14.25116504 rev/day
Decay rate:        3.2e-07 rev/day^2
Epoch rev:           74532
Checksum:              301

Satellite: RESURS
Catalog number: 25394
Epoch time:      12257.91731355
Element set:     183
Inclination:      098.3285 deg
RA of node:       241.5208 deg
Eccentricity:    0.0001871
Arg of perigee:   015.0204 deg
Mean anomaly:     345.1031 deg
Mean motion:   14.24295987 rev/day
Decay rate:        7.0e-07 rev/day^2
Epoch rev:           73703
Checksum:              277

Satellite: FENGYUN1
Catalog number: 25730
Epoch time:      12256.94280963
Element set:    0705
Inclination:      098.8504 deg
RA of node:       214.4296 deg
Eccentricity:    0.0019737
Arg of perigee:   106.3048 deg
Mean anomaly:     254.0288 deg
Mean motion:   14.09744579 rev/day
Decay rate:       9.19e-06 rev/day^2
Epoch rev:           68697
Checksum:              341

Satellite: OKEAN-0
Catalog number: 25860
Epoch time:      12257.90141701
Element set:     734
Inclination:      097.9472 deg
RA of node:       218.7839 deg
Eccentricity:    0.0001172
Arg of perigee:   034.8559 deg
Mean anomaly:     325.2715 deg
Mean motion:   14.74298022 rev/day
Decay rate:       6.07e-06 rev/day^2
Epoch rev:           70764
Checksum:              307

Satellite: NOAA-16
Catalog number: 26536
Epoch time:      12256.71542925
Element set:    0888
Inclination:      099.0860 deg
RA of node:       300.1559 deg
Eccentricity:    0.0010251
Arg of perigee:   193.5708 deg
Mean anomaly:     166.5181 deg
Mean motion:   14.12777962 rev/day
Decay rate:      -1.59e-06 rev/day^2
Epoch rev:           61739
Checksum:              327

Satellite: NOAA-17
Catalog number: 27453
Epoch time:      12256.75488909
Element set:    0834
Inclination:      098.3323 deg
RA of node:       279.3507 deg
Eccentricity:    0.0010685
Arg of perigee:   259.4092 deg
Mean anomaly:     100.5870 deg
Mean motion:   14.24480326 rev/day
Decay rate:       1.03e-06 rev/day^2
Epoch rev:           53122
Checksum:              304

Satellite: NOAA-18
Catalog number: 28654
Epoch time:      12256.74029448
Element set:    0316
Inclination:      099.0552 deg
RA of node:       215.5990 deg
Eccentricity:    0.0013449
Arg of perigee:   269.9177 deg
Mean anomaly:     090.0446 deg
Mean motion:   14.11697558 rev/day
Decay rate:       2.47e-06 rev/day^2
Epoch rev:           37691
Checksum:              340

Satellite: NOAA-19
Catalog number: 33591
Epoch time:      12256.76792008
Element set:    0505
Inclination:      098.8677 deg
RA of node:       195.4920 deg
Eccentricity:    0.0014570
Arg of perigee:   130.3334 deg
Mean anomaly:     229.9137 deg
Mean motion:   14.11382424 rev/day
Decay rate:        3.2e-07 rev/day^2
Epoch rev:           18536
Checksum:              307

/EX
SB KEPS @ AMSAT  $ORB12257.M
Orbital Elements  12257.MISC

HR AMSAT ORBITAL ELEMENTS FOR MANNED AND MISCELLANEOUS SATELLITES
FROM WA5QGD FORT WORTH,TX September 13, 2012
Send SUBSCRIBE KEPS/UNSUBSCRIBE KEPS to majordomo at amsat.org only
BID: ORB12257.M
TO ALL RADIO AMATEURS BT

Satellite: HUBBLE
Catalog number: 20580
Epoch time:      12257.19433996
Element set:      69
Inclination:      028.4704 deg
RA of node:       287.5150 deg
Eccentricity:    0.0003044
Arg of perigee:   270.3566 deg
Mean anomaly:     089.6521 deg
Mean motion:   15.02776566 rev/day
Decay rate:      1.792e-05 rev/day^2
Epoch rev:            2798
Checksum:              313

Satellite: ISS
Catalog number: 25544
Epoch time:      12257.82977436
Element set:     294
Inclination:      051.6423 deg
RA of node:       040.6026 deg
Eccentricity:    0.0015298
Arg of perigee:   067.3440 deg
Mean anomaly:     067.8785 deg
Mean motion:   15.50570216 rev/day
Decay rate:      1.057e-05 rev/day^2
Epoch rev:           79179
Checksum:              313

Satellite: CO-58
Catalog number: 28895
Epoch time:      12257.58725851
Element set:     275
Inclination:      097.9023 deg
RA of node:       119.9199 deg
Eccentricity:    0.0016590
Arg of perigee:   231.1798 deg
Mean anomaly:     128.7929 deg
Mean motion:   14.60740140 rev/day
Decay rate:       4.98e-06 rev/day^2
Epoch rev:           36656
Checksum:              360

Satellite: FALCON
Catalog number: 30776
Epoch time:      12256.92273192
Element set:    0438
Inclination:      035.4320 deg
RA of node:       100.7235 deg
Eccentricity:    0.0001643
Arg of perigee:   352.5781 deg
Mean anomaly:     007.4911 deg
Mean motion:   15.08171905 rev/day
Decay rate:      4.322e-05 rev/day^2
Epoch rev:           30350
Checksum:              258

Satellite: MAST
Catalog number: 31126
Epoch time:      12257.57060482
Element set:     556
Inclination:      097.8759 deg
RA of node:       263.5117 deg
Eccentricity:    0.0093116
Arg of perigee:   194.6648 deg
Mean anomaly:     165.1841 deg
Mean motion:   14.54249963 rev/day
Decay rate:       2.36e-06 rev/day^2
Epoch rev:           28711
Checksum:              318

Satellite: CAPE1
Catalog number: 31130
Epoch time:      12257.54196351
Element set:     566
Inclination:      097.8846 deg
RA of node:       259.8225 deg
Eccentricity:    0.0100778
Arg of perigee:   208.3130 deg
Mean anomaly:     151.2551 deg
Mean motion:   14.53060567 rev/day
Decay rate:       4.53e-06 rev/day^2
Epoch rev:           28660
Checksum:              292

